DAL841 KSLC-KLAX

Flight info

Callsign DAL841
Flight time 1h 34m
Altitude 36000
Route ARCHZ1 WINEN LAKRR Q73 HAKMN ANJLL4
Aircraft A320/M-SDE3FGHIRWY/LB1

Departure

Time 2026-04-25 22:53
Airport Salt Lake City International Airport (KSLC)

Arrival

Time 2026-04-26 00:28
Airport Los Angeles International Airport (KLAX)
Time Latitude Longitude Altitude Speed Heading
2026-04-25 22:09 40.78507 -111.98641 4227 ft 0 kts
2026-04-25 22:44 40.78497 -111.98644 4227 ft 2 kts 13°
2026-04-25 22:44 40.78483 -111.98650 4226 ft 2 kts 26°
2026-04-25 22:44 40.78470 -111.98660 4226 ft 2 kts 38°
2026-04-25 22:44 40.78458 -111.98674 4226 ft 2 kts 50°
2026-04-25 22:45 40.78450 -111.98686 4226 ft 1 kts 18°
2026-04-25 22:45 40.78437 -111.98685 4227 ft 2 kts 318°
2026-04-25 22:45 40.78432 -111.98676 4227 ft 0 kts 291°
2026-04-25 22:47 40.78433 -111.98676 4227 ft 0 kts 291°
2026-04-25 22:47 40.78435 -111.98686 4227 ft 1 kts 290°
2026-04-25 22:47 40.78441 -111.98714 4227 ft 4 kts 278°
2026-04-25 22:48 40.78441 -111.98765 4227 ft 6 kts 265°
2026-04-25 22:48 40.78436 -111.98835 4227 ft 8 kts 263°
2026-04-25 22:48 40.78430 -111.98914 4226 ft 9 kts 264°
2026-04-25 22:48 40.78423 -111.99004 4226 ft 10 kts 265°
2026-04-25 22:49 40.78417 -111.99102 4226 ft 11 kts 265°
2026-04-25 22:49 40.78411 -111.99207 4226 ft 11 kts 265°
2026-04-25 22:49 40.78411 -111.99320 4226 ft 12 kts 280°
2026-04-25 22:49 40.78397 -111.99424 4226 ft 12 kts 206°
2026-04-25 22:50 40.78308 -111.99425 4226 ft 13 kts 176°
2026-04-25 22:50 40.78213 -111.99414 4226 ft 13 kts 174°
2026-04-25 22:50 40.78115 -111.99407 4226 ft 14 kts 186°
2026-04-25 22:50 40.78015 -111.99432 4226 ft 14 kts 189°
2026-04-25 22:51 40.77912 -111.99432 4226 ft 14 kts 176°
2026-04-25 22:51 40.77810 -111.99421 4228 ft 14 kts 175°
2026-04-25 22:51 40.77708 -111.99410 4227 ft 14 kts 175°
2026-04-25 22:51 40.77605 -111.99398 4228 ft 11 kts 176°
2026-04-25 22:52 40.77539 -111.99406 4229 ft 9 kts 214°
2026-04-25 22:52 40.77522 -111.99489 4229 ft 10 kts 277°
2026-04-25 22:52 40.77568 -111.99556 4229 ft 10 kts 347°
2026-04-25 22:52 40.77625 -111.99563 4229 ft 20 kts 355°
2026-04-25 22:53 40.78253 -111.99636 4226 ft 110 kts 355°
2026-04-25 22:53 40.79210 -111.99754 4226 ft 163 kts 354°
2026-04-25 22:53 40.80447 -111.99901 4530 ft 182 kts 353°
2026-04-25 22:53 40.81761 -112.00064 5001 ft 195 kts 354°
2026-04-25 22:54 40.83140 -112.00259 5602 ft 201 kts 351°
2026-04-25 22:54 40.84504 -112.00738 6333 ft 200 kts 340°
2026-04-25 22:54 40.85726 -112.01730 6745 ft 215 kts 309°
2026-04-25 22:54 40.86218 -112.03655 7025 ft 230 kts 268°
2026-04-25 22:55 40.85641 -112.05751 7241 ft 251 kts 238°
2026-04-25 22:55 40.84629 -112.07717 7631 ft 265 kts 235°
2026-04-25 22:55 40.83534 -112.09815 8029 ft 280 kts 236°
2026-04-25 22:55 40.82451 -112.12003 8721 ft 283 kts 237°
2026-04-25 22:56 40.81392 -112.14231 9541 ft 282 kts 238°
2026-04-25 22:56 40.80368 -112.16430 10298 ft 283 kts 238°
2026-04-25 22:56 40.79299 -112.18746 10749 ft 297 kts 238°
2026-04-25 22:56 40.78199 -112.21143 11161 ft 310 kts 239°
2026-04-25 22:57 40.77054 -112.23644 11871 ft 314 kts 239°
2026-04-25 22:57 40.75745 -112.25984 12608 ft 316 kts 223°
2026-04-25 22:57 40.73841 -112.27518 13350 ft 321 kts 202°
2026-04-25 22:57 40.71619 -112.28143 14106 ft 325 kts 192°
2026-04-25 22:58 40.69342 -112.28590 14786 ft 328 kts 192°
2026-04-25 22:58 40.67055 -112.29040 15443 ft 332 kts 192°
2026-04-25 22:58 40.64724 -112.29504 16088 ft 335 kts 192°
2026-04-25 22:58 40.62394 -112.29974 16731 ft 337 kts 193°
2026-04-25 22:59 40.60025 -112.30454 17332 ft 341 kts 193°
2026-04-25 22:59 40.57613 -112.30990 17949 ft 343 kts 195°
2026-04-25 22:59 40.55252 -112.31712 18537 ft 344 kts 199°
2026-04-25 22:59 40.52940 -112.32617 19108 ft 345 kts 201°
2026-04-25 23:00 40.50603 -112.33574 19663 ft 348 kts 201°
2026-04-25 23:00 40.48219 -112.34551 20239 ft 350 kts 201°
2026-04-25 23:00 40.46077 -112.35427 20702 ft 353 kts 201°
2026-04-25 23:00 40.43715 -112.36393 21232 ft 355 kts 201°
2026-04-25 23:01 40.41309 -112.37375 21769 ft 357 kts 201°
2026-04-25 23:01 40.38894 -112.38358 22305 ft 359 kts 202°
2026-04-25 23:01 40.36470 -112.39347 22813 ft 361 kts 202°
2026-04-25 23:01 40.34022 -112.40347 23317 ft 363 kts 201°
2026-04-25 23:02 40.31556 -112.41351 23781 ft 366 kts 201°
2026-04-25 23:02 40.29113 -112.42343 24264 ft 367 kts 202°
2026-04-25 23:02 40.26610 -112.43359 24733 ft 369 kts 202°
2026-04-25 23:02 40.24115 -112.44373 25193 ft 370 kts 202°
2026-04-25 23:03 40.21590 -112.45403 25643 ft 371 kts 203°
2026-04-25 23:03 40.19113 -112.46571 26084 ft 370 kts 206°
2026-04-25 23:03 40.16709 -112.47940 26520 ft 369 kts 210°
2026-04-25 23:03 40.14401 -112.49481 26916 ft 369 kts 213°
2026-04-25 23:04 40.12099 -112.51098 27335 ft 369 kts 213°
2026-04-25 23:04 40.10549 -112.52188 27593 ft 370 kts 213°
2026-04-25 23:04 40.07480 -112.54343 28056 ft 373 kts 213°
2026-04-25 23:04 40.05144 -112.55985 28420 ft 374 kts 213°
2026-04-25 23:05 40.02802 -112.57629 28780 ft 375 kts 213°
2026-04-25 23:05 40.00491 -112.59248 29135 ft 375 kts 213°
2026-04-25 23:05 39.98138 -112.60899 29457 ft 377 kts 213°
2026-04-25 23:05 39.95782 -112.62549 29779 ft 378 kts 213°
2026-04-25 23:06 39.93413 -112.64211 30071 ft 379 kts 213°
2026-04-25 23:06 39.91059 -112.65859 30364 ft 381 kts 212°
2026-04-25 23:06 39.88668 -112.67528 30672 ft 382 kts 212°
2026-04-25 23:06 39.86313 -112.69173 30951 ft 384 kts 213°
2026-04-25 23:07 39.83904 -112.70858 31236 ft 386 kts 213°
2026-04-25 23:07 39.81488 -112.72540 31523 ft 387 kts 213°
2026-04-25 23:07 39.79037 -112.74252 31766 ft 390 kts 213°
2026-04-25 23:07 39.76621 -112.75934 32012 ft 391 kts 213°
2026-04-25 23:08 39.74189 -112.77627 32261 ft 393 kts 213°
2026-04-25 23:08 39.71719 -112.79327 32476 ft 395 kts 212°
2026-04-25 23:08 39.69174 -112.80895 32703 ft 399 kts 209°
2026-04-25 23:08 39.66563 -112.82295 33000 ft 400 kts 206°
2026-04-25 23:09 39.63889 -112.83525 33349 ft 400 kts 204°
2026-04-25 23:09 39.61229 -112.84592 33695 ft 398 kts 203°
2026-04-25 23:09 39.58533 -112.85674 34012 ft 397 kts 203°
2026-04-25 23:09 39.55860 -112.86748 34283 ft 396 kts 203°
2026-04-25 23:10 39.53314 -112.87766 34457 ft 397 kts 203°
2026-04-25 23:10 39.50610 -112.88847 34593 ft 399 kts 203°
2026-04-25 23:10 39.47947 -112.89910 34736 ft 400 kts 203°
2026-04-25 23:10 39.45239 -112.90990 34908 ft 400 kts 203°
2026-04-25 23:11 39.42535 -112.92064 35064 ft 400 kts 204°
2026-04-25 23:11 39.39814 -112.93145 35179 ft 402 kts 203°
2026-04-25 23:11 39.37110 -112.94218 35287 ft 403 kts 203°
2026-04-25 23:11 39.34373 -112.95303 35407 ft 404 kts 203°
2026-04-25 23:12 39.31667 -112.96375 35538 ft 405 kts 203°
2026-04-25 23:12 39.28921 -112.97463 35666 ft 405 kts 203°
2026-04-25 23:12 39.26199 -112.98538 35795 ft 405 kts 203°
2026-04-25 23:12 39.23463 -112.99616 35839 ft 406 kts 203°
2026-04-25 23:13 39.18003 -113.01769 35850 ft 406 kts 203°
2026-04-25 23:13 39.12511 -113.03932 35853 ft 405 kts 203°
2026-04-25 23:14 39.06982 -113.06106 35854 ft 405 kts 203°
2026-04-25 23:14 39.01496 -113.08258 35847 ft 405 kts 203°
2026-04-25 23:15 38.96017 -113.10404 35844 ft 405 kts 203°
2026-04-25 23:15 38.90566 -113.12537 35837 ft 404 kts 203°
2026-04-25 23:16 38.85068 -113.14682 35841 ft 405 kts 203°
2026-04-25 23:16 38.79580 -113.16823 35850 ft 405 kts 203°
2026-04-25 23:17 38.74139 -113.18941 35848 ft 405 kts 203°
2026-04-25 23:17 38.68642 -113.21078 35860 ft 406 kts 203°
2026-04-25 23:18 38.63160 -113.23204 35862 ft 405 kts 203°
2026-04-25 23:18 38.57692 -113.25323 35861 ft 405 kts 203°
2026-04-25 23:19 38.52198 -113.27449 35868 ft 405 kts 203°
2026-04-25 23:19 38.46735 -113.29556 35888 ft 404 kts 203°
2026-04-25 23:20 38.41207 -113.31690 35874 ft 404 kts 203°
2026-04-25 23:20 38.35746 -113.33791 35873 ft 405 kts 203°
2026-04-25 23:21 38.30278 -113.35893 35877 ft 404 kts 203°
2026-04-25 23:21 38.24797 -113.37995 35881 ft 405 kts 203°
2026-04-25 23:22 38.19348 -113.40083 35882 ft 405 kts 203°
2026-04-25 23:23 38.11105 -113.43236 35888 ft 405 kts 203°
2026-04-25 23:23 38.05618 -113.45332 35886 ft 404 kts 203°
2026-04-25 23:24 38.00121 -113.47425 35897 ft 405 kts 203°
2026-04-25 23:24 37.94660 -113.49503 35902 ft 404 kts 203°
2026-04-25 23:25 37.89240 -113.51805 35903 ft 403 kts 205°
2026-04-25 23:25 37.83823 -113.54157 35901 ft 403 kts 205°
2026-04-25 23:26 37.78458 -113.56486 35899 ft 403 kts 205°
2026-04-25 23:26 37.73066 -113.58826 35905 ft 402 kts 205°
2026-04-25 23:27 37.67677 -113.61159 35905 ft 403 kts 205°
2026-04-25 23:27 37.62277 -113.63498 35901 ft 403 kts 205°
2026-04-25 23:28 37.56887 -113.65826 35898 ft 402 kts 204°
2026-04-25 23:28 37.51503 -113.68147 35891 ft 403 kts 205°
2026-04-25 23:29 37.46090 -113.70480 35883 ft 402 kts 205°
2026-04-25 23:29 37.40700 -113.72800 35888 ft 403 kts 205°
2026-04-25 23:30 37.35287 -113.75125 35870 ft 403 kts 205°
2026-04-25 23:30 37.29887 -113.77442 35859 ft 402 kts 205°
2026-04-25 23:31 37.24499 -113.79748 35854 ft 403 kts 205°
2026-04-25 23:31 37.19145 -113.82040 35845 ft 402 kts 204°
2026-04-25 23:32 37.13730 -113.84351 35830 ft 403 kts 205°
2026-04-25 23:32 37.08335 -113.86652 35817 ft 402 kts 205°
2026-04-25 23:33 37.02987 -113.88928 35806 ft 402 kts 205°
2026-04-25 23:33 36.97594 -113.91223 35790 ft 401 kts 205°
2026-04-25 23:34 36.92221 -113.93501 35776 ft 401 kts 204°
2026-04-25 23:34 36.86859 -113.95775 35765 ft 400 kts 205°
2026-04-25 23:35 36.81504 -113.98041 35762 ft 401 kts 205°
2026-04-25 23:35 36.76167 -114.00296 35747 ft 402 kts 205°
2026-04-25 23:36 36.70746 -114.02584 35752 ft 401 kts 205°
2026-04-25 23:36 36.65384 -114.04842 35763 ft 401 kts 205°
2026-04-25 23:37 36.60020 -114.07099 35774 ft 401 kts 205°
2026-04-25 23:37 36.54659 -114.09351 35782 ft 399 kts 205°
2026-04-25 23:38 36.49338 -114.11582 35784 ft 399 kts 205°
2026-04-25 23:38 36.44001 -114.13818 35781 ft 399 kts 205°
2026-04-25 23:39 36.38654 -114.16056 35779 ft 398 kts 205°
2026-04-25 23:39 36.33292 -114.18294 35778 ft 399 kts 205°
2026-04-25 23:40 36.27969 -114.20515 35776 ft 399 kts 205°
2026-04-25 23:40 36.22605 -114.22751 35790 ft 398 kts 205°
2026-04-25 23:41 36.17283 -114.24971 35800 ft 397 kts 206°
2026-04-25 23:41 36.12214 -114.27771 35791 ft 391 kts 213°
2026-04-25 23:42 36.07578 -114.31426 35774 ft 386 kts 221°
2026-04-25 23:42 36.03515 -114.35820 35763 ft 383 kts 229°
2026-04-25 23:43 35.99857 -114.40749 35755 ft 383 kts 230°
2026-04-25 23:43 35.96205 -114.45690 35749 ft 383 kts 230°
2026-04-25 23:44 35.92571 -114.50596 35768 ft 382 kts 230°
2026-04-25 23:44 35.88935 -114.55499 35768 ft 382 kts 230°
2026-04-25 23:45 35.85306 -114.60381 35764 ft 383 kts 230°
2026-04-25 23:45 35.81651 -114.65291 35765 ft 382 kts 229°
2026-04-25 23:46 35.78017 -114.70169 35759 ft 382 kts 229°
2026-04-25 23:46 35.74357 -114.75069 35748 ft 382 kts 229°
2026-04-25 23:47 35.70727 -114.79925 35741 ft 381 kts 229°
2026-04-25 23:47 35.67096 -114.84774 35754 ft 380 kts 229°
2026-04-25 23:48 35.63470 -114.89610 35754 ft 378 kts 229°
2026-04-25 23:48 35.59842 -114.94444 35761 ft 379 kts 229°
2026-04-25 23:49 35.56206 -114.99279 35784 ft 379 kts 229°
2026-04-25 23:49 35.52570 -115.04108 35804 ft 379 kts 229°
2026-04-25 23:50 35.48938 -115.08926 35803 ft 380 kts 229°
2026-04-25 23:50 35.45287 -115.13758 35809 ft 379 kts 229°
2026-04-25 23:51 35.41647 -115.18574 35815 ft 379 kts 229°
2026-04-25 23:51 35.37996 -115.23392 35817 ft 379 kts 229°
2026-04-25 23:52 35.34366 -115.28182 35816 ft 378 kts 229°
2026-04-25 23:52 35.30734 -115.32961 35823 ft 377 kts 229°
2026-04-25 23:53 35.27107 -115.37727 35826 ft 377 kts 229°
2026-04-25 23:53 35.23461 -115.42516 35827 ft 378 kts 229°
2026-04-25 23:54 35.19838 -115.47267 35819 ft 378 kts 229°
2026-04-25 23:54 35.16191 -115.52040 35828 ft 377 kts 229°
2026-04-25 23:55 35.12539 -115.56815 35814 ft 377 kts 229°
2026-04-25 23:55 35.08908 -115.61555 35807 ft 377 kts 229°
2026-04-25 23:56 35.05239 -115.66337 35790 ft 376 kts 229°
2026-04-25 23:56 35.01605 -115.71069 35780 ft 377 kts 229°
2026-04-25 23:57 34.97943 -115.75835 35754 ft 377 kts 229°
2026-04-25 23:57 34.94310 -115.80547 35758 ft 376 kts 229°
2026-04-25 23:58 34.90665 -115.85274 35762 ft 376 kts 229°
2026-04-25 23:58 34.87032 -115.89980 35772 ft 377 kts 228°
2026-04-25 23:59 34.83376 -115.94704 35781 ft 376 kts 228°
2026-04-25 23:59 34.79756 -115.99379 35782 ft 375 kts 228°
2026-04-26 00:00 34.76107 -116.04073 35785 ft 375 kts 228°
2026-04-26 00:00 34.72446 -116.08733 35780 ft 374 kts 229°
2026-04-26 00:01 34.68985 -116.13139 35781 ft 374 kts 228°
2026-04-26 00:01 34.65353 -116.17756 35785 ft 374 kts 228°
2026-04-26 00:02 34.61704 -116.22385 35476 ft 375 kts 228°
2026-04-26 00:02 34.59864 -116.24724 35305 ft 375 kts 228°
2026-04-26 00:02 34.58042 -116.27032 35149 ft 374 kts 228°
2026-04-26 00:02 34.56233 -116.29322 34981 ft 374 kts 228°
2026-04-26 00:03 34.54393 -116.31652 34826 ft 374 kts 228°
2026-04-26 00:03 34.52557 -116.33978 34693 ft 374 kts 228°
2026-04-26 00:03 34.50732 -116.36279 34563 ft 373 kts 228°
2026-04-26 00:03 34.48929 -116.38559 34371 ft 368 kts 227°
2026-04-26 00:04 34.47125 -116.40840 33794 ft 367 kts 229°
2026-04-26 00:04 34.45384 -116.43195 32886 ft 371 kts 230°
2026-04-26 00:04 34.43734 -116.45656 31876 ft 377 kts 232°
2026-04-26 00:04 34.42149 -116.48266 30973 ft 377 kts 234°
2026-04-26 00:05 34.40705 -116.50905 30390 ft 363 kts 237°
2026-04-26 00:05 34.39405 -116.53538 29864 ft 358 kts 238°
2026-04-26 00:05 34.38217 -116.56216 29343 ft 355 kts 240°
2026-04-26 00:05 34.37089 -116.58926 28863 ft 351 kts 240°
2026-04-26 00:06 34.35990 -116.61557 28405 ft 347 kts 240°
2026-04-26 00:06 34.34892 -116.64204 27942 ft 343 kts 240°
2026-04-26 00:06 34.33807 -116.66825 27499 ft 340 kts 240°
2026-04-26 00:06 34.32765 -116.69381 27058 ft 337 kts 241°
2026-04-26 00:07 34.31736 -116.71941 26625 ft 334 kts 241°
2026-04-26 00:07 34.30713 -116.74491 26183 ft 331 kts 241°
2026-04-26 00:07 34.29689 -116.77035 25753 ft 328 kts 241°
2026-04-26 00:07 34.28698 -116.79504 25338 ft 326 kts 241°
2026-04-26 00:08 34.27687 -116.82012 24916 ft 323 kts 241°
2026-04-26 00:08 34.26703 -116.84454 24498 ft 321 kts 241°
2026-04-26 00:08 34.25719 -116.86895 24084 ft 318 kts 241°
2026-04-26 00:08 34.24742 -116.89316 23673 ft 316 kts 241°
2026-04-26 00:09 34.23771 -116.91720 23251 ft 314 kts 241°
2026-04-26 00:09 34.22795 -116.94135 22822 ft 311 kts 241°
2026-04-26 00:09 34.21863 -116.96483 22383 ft 310 kts 243°
2026-04-26 00:09 34.21017 -116.98924 21922 ft 310 kts 245°
2026-04-26 00:10 34.20287 -117.01415 21465 ft 311 kts 248°
2026-04-26 00:10 34.19604 -117.03903 21037 ft 309 kts 248°
2026-04-26 00:10 34.18899 -117.06453 20632 ft 323 kts 248°
2026-04-26 00:10 34.18167 -117.09062 20217 ft 325 kts 249°
2026-04-26 00:11 34.17466 -117.11684 19796 ft 323 kts 249°
2026-04-26 00:11 34.16777 -117.14278 19399 ft 322 kts 249°
2026-04-26 00:11 34.16072 -117.16898 19009 ft 321 kts 249°
2026-04-26 00:11 34.15372 -117.19459 18601 ft 319 kts 249°
2026-04-26 00:12 34.14664 -117.22032 18180 ft 318 kts 249°
2026-04-26 00:12 34.13961 -117.24583 17783 ft 317 kts 249°
2026-04-26 00:12 34.13257 -117.27144 17382 ft 315 kts 249°
2026-04-26 00:12 34.12562 -117.29666 16989 ft 313 kts 249°
2026-04-26 00:13 34.11872 -117.32164 16594 ft 310 kts 249°
2026-04-26 00:13 34.11185 -117.34647 16199 ft 308 kts 249°
2026-04-26 00:13 34.10502 -117.37128 15800 ft 308 kts 249°
2026-04-26 00:13 34.09860 -117.39625 15403 ft 306 kts 251°
2026-04-26 00:14 34.09251 -117.42080 15016 ft 304 kts 251°
2026-04-26 00:14 34.08641 -117.44542 14616 ft 303 kts 251°
2026-04-26 00:14 34.08029 -117.46997 13928 ft 309 kts 250°
2026-04-26 00:14 34.07439 -117.49527 13466 ft 306 kts 253°
2026-04-26 00:15 34.07000 -117.52066 13041 ft 304 kts 257°
2026-04-26 00:15 34.06628 -117.54556 12485 ft 306 kts 257°
2026-04-26 00:15 34.06250 -117.57114 11917 ft 303 kts 257°
2026-04-26 00:15 34.05889 -117.59583 11384 ft 293 kts 257°
2026-04-26 00:16 34.05535 -117.61992 10869 ft 291 kts 258°
2026-04-26 00:16 34.05174 -117.64429 10377 ft 291 kts 258°
2026-04-26 00:16 34.04824 -117.66802 10088 ft 284 kts 257°
2026-04-26 00:16 34.04485 -117.69111 9996 ft 270 kts 257°
2026-04-26 00:17 34.04156 -117.71343 9709 ft 267 kts 257°
2026-04-26 00:17 34.03822 -117.73576 9285 ft 271 kts 257°
2026-04-26 00:17 34.03228 -117.75724 8846 ft 269 kts 237°
2026-04-26 00:17 34.02117 -117.77565 8429 ft 268 kts 231°
2026-04-26 00:18 34.01227 -117.79554 7983 ft 270 kts 254°
2026-04-26 00:18 34.00928 -117.81798 7571 ft 271 kts 262°
2026-04-26 00:18 34.00744 -117.84086 7146 ft 272 kts 263°
2026-04-26 00:18 34.00559 -117.86356 6725 ft 272 kts 263°
2026-04-26 00:19 34.00354 -117.88652 6298 ft 272 kts 263°
2026-04-26 00:19 34.00144 -117.90896 6111 ft 262 kts 263°
2026-04-26 00:19 33.99938 -117.93055 5983 ft 251 kts 262°
2026-04-26 00:19 33.99739 -117.95108 5959 ft 237 kts 262°
2026-04-26 00:20 33.99551 -117.97047 5952 ft 223 kts 262°
2026-04-26 00:20 33.99365 -117.98939 5968 ft 232 kts 262°
2026-04-26 00:20 33.99172 -118.00889 5806 ft 233 kts 262°
2026-04-26 00:20 33.98975 -118.02858 5593 ft 232 kts 262°
2026-04-26 00:21 33.98781 -118.04806 5337 ft 228 kts 262°
2026-04-26 00:21 33.98594 -118.06685 5084 ft 224 kts 262°
2026-04-26 00:21 33.98406 -118.08571 4829 ft 221 kts 262°
2026-04-26 00:21 33.98225 -118.10377 4589 ft 217 kts 262°
2026-04-26 00:22 33.98043 -118.12186 4348 ft 213 kts 262°
2026-04-26 00:22 33.97865 -118.13957 4114 ft 209 kts 262°
2026-04-26 00:22 33.97692 -118.15686 3897 ft 205 kts 262°
2026-04-26 00:22 33.97529 -118.17326 3781 ft 189 kts 263°
2026-04-26 00:23 33.97374 -118.18881 3398 ft 182 kts 262°
2026-04-26 00:23 33.97226 -118.20348 3165 ft 168 kts 262°
2026-04-26 00:23 33.97094 -118.21684 3024 ft 151 kts 262°
2026-04-26 00:23 33.96973 -118.22895 2889 ft 142 kts 262°
2026-04-26 00:24 33.96853 -118.24081 2778 ft 139 kts 262°
2026-04-26 00:24 33.96740 -118.25195 2516 ft 130 kts 262°
2026-04-26 00:24 33.96630 -118.26283 2341 ft 129 kts 261°
2026-04-26 00:24 33.96521 -118.27368 2175 ft 130 kts 261°
2026-04-26 00:25 33.96411 -118.28442 2001 ft 130 kts 261°
2026-04-26 00:25 33.96299 -118.29536 1828 ft 130 kts 261°
2026-04-26 00:25 33.96188 -118.30632 1658 ft 131 kts 261°
2026-04-26 00:25 33.96078 -118.31713 1482 ft 128 kts 261°
2026-04-26 00:26 33.95968 -118.32782 1293 ft 128 kts 262°
2026-04-26 00:26 33.95873 -118.33840 1120 ft 127 kts 262°
2026-04-26 00:26 33.95771 -118.34907 961 ft 128 kts 261°
2026-04-26 00:26 33.95657 -118.35983 803 ft 128 kts 262°
2026-04-26 00:27 33.95549 -118.37060 627 ft 128 kts 261°
2026-04-26 00:27 33.95415 -118.38118 470 ft 127 kts 259°
2026-04-26 00:27 33.95304 -118.39179 315 ft 126 kts 262°
2026-04-26 00:27 33.95208 -118.40240 170 ft 126 kts 262°
2026-04-26 00:28 33.95100 -118.41264 129 ft 111 kts 263°
2026-04-26 00:28 33.95020 -118.42047 126 ft 72 kts 265°
2026-04-26 00:28 33.94976 -118.42429 124 ft 26 kts 252°
2026-04-26 00:28 33.94894 -118.42622 122 ft 25 kts 232°
2026-04-26 00:29 33.94761 -118.42759 119 ft 24 kts 209°
2026-04-26 00:29 33.94655 -118.42775 118 ft 10 kts 149°
2026-04-26 00:29 33.94650 -118.42771 118 ft 0 kts 143°
2026-04-26 00:31 33.94647 -118.42768 118 ft 2 kts 136°
2026-04-26 00:31 33.94636 -118.42744 118 ft 4 kts 105°
2026-04-26 00:32 33.94637 -118.42698 118 ft 7 kts 84°
2026-04-26 00:32 33.94644 -118.42625 119 ft 10 kts 83°
2026-04-26 00:32 33.94665 -118.42419 120 ft 14 kts 83°
2026-04-26 00:33 33.94678 -118.42295 121 ft 15 kts 83°
2026-04-26 00:33 33.94691 -118.42168 122 ft 15 kts 83°
2026-04-26 00:33 33.94704 -118.42042 123 ft 15 kts 84°
2026-04-26 00:33 33.94717 -118.41913 125 ft 15 kts 83°
2026-04-26 00:34 33.94730 -118.41785 126 ft 15 kts 84°
2026-04-26 00:34 33.94743 -118.41657 127 ft 15 kts 84°
2026-04-26 00:34 33.94757 -118.41524 128 ft 15 kts 83°
2026-04-26 00:34 33.94779 -118.41393 128 ft 16 kts 73°
2026-04-26 00:35 33.94799 -118.41261 130 ft 15 kts 85°
2026-04-26 00:35 33.94811 -118.41129 130 ft 16 kts 82°
2026-04-26 00:35 33.94826 -118.40989 130 ft 17 kts 83°
2026-04-26 00:35 33.94841 -118.40839 129 ft 18 kts 84°
2026-04-26 00:36 33.94855 -118.40704 128 ft 13 kts 84°
2026-04-26 00:36 33.94839 -118.40607 127 ft 12 kts 134°
2026-04-26 00:36 33.94801 -118.40598 128 ft 9 kts 214°
2026-04-26 00:36 33.94785 -118.40622 128 ft 3 kts 244°
2026-04-26 00:37 33.94777 -118.40653 129 ft 3 kts 258°
2026-04-26 00:37 33.94773 -118.40688 129 ft 5 kts 262°
2026-04-26 00:37 33.94768 -118.40736 129 ft 6 kts 263°
2026-04-26 00:37 33.94765 -118.40758 129 ft 0 kts 264°
2026-04-26 00:39 33.94765 -118.40760 129 ft 1 kts 264°
2026-04-26 00:39 33.94761 -118.40810 129 ft 9 kts 263°
2026-04-26 00:39 33.94741 -118.40894 130 ft 10 kts 227°
2026-04-26 00:39 33.94678 -118.40910 131 ft 9 kts 173°
2026-04-26 00:40 33.94616 -118.40900 131 ft 8 kts 172°
2026-04-26 00:40 33.94554 -118.40893 131 ft 8 kts 175°
2026-04-26 00:40 33.94514 -118.40852 130 ft 9 kts 85°
2026-04-26 00:40 33.94525 -118.40802 130 ft 2 kts 73°
2026-04-26 00:41 33.94526 -118.40798 130 ft 0 kts 73°